星链-36999(STARLINK-36999)

导读

STARLINK-36999(NORAD编号68268)是美国SpaceX公司星链(Starlink)星座中的一颗低轨互联网卫星,隶属于大规模低轨卫星互联网项目。星链计划旨在构建覆盖全球的天基通信网络,填补地面网络覆盖空白,为偏远地区、航空、海洋等场景提供低延迟高速互联网服务。该卫星运行于近地轨道,是SpaceX在2026年计划降低轨道高度(从550公里降至480公里)的四千颗星链卫星之一,降轨旨在减少太空碰撞风险,避免太空碎片堆积,提升近地轨道运行安全性。作为星链星座的组成部分,它为全球超过500万用户的卫星互联网服务提供网络支持,助力星链实现全球覆盖的战略目标。

Basic Information
目录编号:
68268
目录名称:
STARLINK-36999
国际标识:
2026-055G
轨道中心:
EARTH
卫星名称:
星链-36999
卫星全名:
星链-36999(STARLINK-36999)
卫星状态:
在轨 (已飞行178 天)
发射日期:
2026-03-19 UTC
国别 :
美国 (US)
星等 :
--
This satellite is enrolled in the Space Conjunction Data Service (SCDS) and the current flight risk assessment level is: No High Risk
Orbit Information
数据来源 国际轨道数据
星历时间: 2026-09-13T10:51:52+0800
7小时前
查看轨道信息
半长轴: 6840.752km
偏心率: 0.0001737
轨道倾角: 53.158°
近地点辐角 84.545°
升交点赤经 163.941°
平近点角 275.575°
近地点: 461.426km
远地点: 463.804km
周期: 93.846分钟
每日圈数: 15.344298
Detailed Information
固有亮度:
5
最大亮度:
2.5
卫星平台:
Starlink V1.0
覆盖范围:
全球
运营商:
太空探索技术公司
运营商所在国:
美国
制造商(研发单位):
太空探索技术公司
制造商所在国:
美国
使用方式:
暂无
Satellite Introduction
Starlink 计划是 SpaceX 推出的全球卫星互联网项目,通过发射低轨道卫星,为全球尤其是偏远地区提供高速、低延迟的互联网服务。自 2019 年起,Starlink 已部署数千颗卫星,旨在缩小全球数字鸿沟,推动互联网普及。该项目还为军事、航空等行业提供通信支持,带来广泛经济效益。
2D Orbit Map
3D Orbit Map
Orbit Altitude Analysis Chart
Orbit Inclination Analysis Chart
Orbit Comprehensive Analysis Chart
View Comprehensive Chart
Conjunction Data List
Event ID Objects TCA Miss Dist (km) Collision Risk Probability Collision Risk Index (CRI) Action
CDM_260914-134405-976606-826821
2026-09-14T
13:44:24+0000
0.697 km
远距离
5.162456E-5 中风险 0.69
CDM_260914-222005-976606-826821
2026-09-14T
22:20:15+0000
0.818 km
远距离
3.106942E-5 中风险 0.65
CDM_260913-164705-211006-826821
2026-09-13T
16:47:55+0000
2.827 km
极远距离
1.249553E-6 低风险 0.37
CDM_260914-235405-976606-826821
2026-09-14T
23:54:02+0000
2.765 km
极远距离
9.581217E-7 极低风险 0.35
CDM_260914-121005-976606-826821
2026-09-14T
12:10:36+0000
2.804 km
极远距离
9.414033E-7 极低风险 0.34
Miss Distance Evolution Trend with All Objects
Collision Probability Evolution Trend with All Objects